Grand Prairie, TX

1:14 AM CDT on July 26, 2017 (GMT -0500)
Grand Prairie Municipal

Weather History for KGPM - October, 2012

Change the Weather History Date:

Tuesday, October 16, 2012

  Actual Average (KRBD) Record (KRBD)
Temperature  
Mean Temperature 68 °F -  
Max Temperature 75 °F 75 °F 89 °F (2014)
Min Temperature 60 °F 55 °F 41 °F (2001)
Cooling Degree Days 2    
Growing Degree Days 18 (Base 50)    
Moisture  
Dew Point 54 °F    
Average Humidity 68    
Maximum Humidity 88    
Minimum Humidity 50    
Precipitation  
Precipitation 0.00 in - - ()
Sea Level Pressure  
Sea Level Pressure 29.88 in    
Wind  
Wind Speed 5 mph (South)    
Max Wind Speed 20 mph    
Max Gust Speed 24 mph    
Visibility 10 miles    
Events      
Averages and records for this station are not official NWS values.
T = Trace of Precipitation, MM = Missing Value Source: NWS Daily Summary

Daily Weather History Graph

Daily Weather History Graph

Search for Another Location

Airport or City:

Trip Planner

Search our weather history database for the weather conditions in past years. The results will help you decide how hot, cold, wet, or windy it might be!

Date:

Astronomy

Oct. 16, 2012 Rise Set
Actual Time 7:33 AM CDT 6:53 PM CDT
Civil Twilight 7:08 AM CDT 7:18 PM CDT
Nautical Twilight 6:39 AM CDT 7:46 PM CDT
Astronomical Twilight 6:11 AM CDT 8:15 PM CDT
Moon 8:50 AM CDT (10/16) 7:47 PM CDT (10/16)
Length of Visible Light 12h 09m
Length of Day
11h 20m
New Moon, 2% of the Moon is Illuminated
Oct 16
New Moon
Oct 21
First Quarter
Oct 29
Full
Nov 6
Last Quarter
Nov 13
New

Hourly Weather History & Observations

Time (CDT) Temp. Dew Point Humidity Pressure Visibility Wind Dir Wind Speed Gust Speed Precip Events Conditions
12:15 AM 62.6 °F 50.0 °F 63% 30.01 in 10.0 mi Calm Calm - N/A   Clear
12:35 AM 62.6 °F 50.0 °F 63% 30.01 in 10.0 mi Calm Calm - N/A   Clear
12:55 AM 62.6 °F 50.0 °F 63% 30.00 in 10.0 mi SSW 3.5 mph - N/A   Clear
1:15 AM 62.6 °F 50.0 °F 63% 29.99 in 10.0 mi SSW 3.5 mph - N/A   Clear
1:35 AM 62.6 °F 50.0 °F 63% 29.99 in 10.0 mi SSW 4.6 mph - N/A   Clear
1:55 AM 62.6 °F 50.0 °F 63% 29.98 in 10.0 mi SSW 3.5 mph - N/A   Clear
2:15 AM 62.6 °F 50.0 °F 63% 29.98 in 10.0 mi SSW 4.6 mph - N/A   Clear
2:35 AM 62.6 °F 50.0 °F 63% 29.98 in 10.0 mi SSW 3.5 mph - N/A   Clear
2:55 AM 60.8 °F 50.0 °F 68% 29.97 in 10.0 mi SSW 3.5 mph - N/A   Clear
3:15 AM 60.8 °F 50.0 °F 68% 29.97 in 10.0 mi Calm Calm - N/A   Clear
3:35 AM 60.8 °F 50.0 °F 68% 29.96 in 10.0 mi South 3.5 mph - N/A   Clear
3:55 AM 60.8 °F 50.0 °F 68% 29.96 in 10.0 mi South 3.5 mph - N/A   Clear
4:15 AM 60.8 °F 50.0 °F 68% 29.94 in 10.0 mi South 3.5 mph - N/A   Clear
4:55 AM 60.8 °F 50.0 °F 68% 29.93 in 10.0 mi SSW 4.6 mph - N/A   Clear
5:15 AM 60.8 °F 50.0 °F 68% 29.93 in 10.0 mi SSW 4.6 mph - N/A   Clear
5:35 AM 60.8 °F 50.0 °F 68% 29.93 in 10.0 mi Calm Calm - N/A   Clear
6:15 AM 60.8 °F 50.0 °F 68% 29.93 in 10.0 mi SSW 3.5 mph - N/A   Clear
6:35 AM 60.8 °F 50.0 °F 68% 29.93 in 10.0 mi SSW 3.5 mph - N/A   Clear
8:50 AM 64.4 °F 51.8 °F 64% 29.93 in 10.0 mi South 4.6 mph - N/A   Mostly Cloudy
9:50 AM 64.4 °F 51.8 °F 64% 29.92 in 10.0 mi South 4.6 mph - N/A   Mostly Cloudy
10:50 AM 68.0 °F 53.6 °F 60% 29.92 in 10.0 mi South 8.1 mph - N/A   Mostly Cloudy
11:50 AM 69.8 °F 51.8 °F 53% 29.91 in 10.0 mi South 11.5 mph 17.3 mph N/A   Mostly Cloudy
12:50 PM 71.6 °F 53.6 °F 53% 29.87 in 10.0 mi South 10.4 mph 17.3 mph N/A   Scattered Clouds
1:50 PM 73.4 °F 53.6 °F 50% 29.84 in 10.0 mi South 10.4 mph 19.6 mph N/A   Overcast
2:50 PM 71.6 °F 55.4 °F 57% 29.80 in 10.0 mi South 11.5 mph 20.7 mph N/A   Mostly Cloudy
3:50 PM 75.2 °F 55.4 °F 50% 29.78 in 10.0 mi South 16.1 mph 24.2 mph N/A   Scattered Clouds
4:50 PM 73.4 °F 57.2 °F 57% 29.75 in 10.0 mi SSE 10.4 mph 18.4 mph N/A   Clear
5:50 PM 73.4 °F 57.2 °F 57% 29.73 in 10.0 mi South 13.8 mph 20.7 mph N/A   Clear
6:50 PM 69.8 °F 59.0 °F 68% 29.73 in 10.0 mi South 17.3 mph 21.9 mph N/A   Clear
9:15 PM 64.4 °F 60.8 °F 88% 29.73 in 10.0 mi South 12.7 mph 17.3 mph N/A   Scattered Clouds
9:35 PM 64.4 °F 60.8 °F 88% 29.73 in 10.0 mi South 9.2 mph 17.3 mph N/A   Mostly Cloudy
9:55 PM 64.4 °F 60.8 °F 88% 29.73 in 10.0 mi South 13.8 mph 18.4 mph N/A   Overcast
10:15 PM 66.2 °F 62.6 °F 88% 29.73 in 10.0 mi South 11.5 mph 19.6 mph N/A   Overcast
10:35 PM 66.2 °F 62.6 °F 88% 29.73 in 10.0 mi South 15.0 mph 20.7 mph N/A   Overcast
11:15 PM 68.0 °F 62.6 °F 83% 29.73 in 10.0 mi South 19.6 mph 24.2 mph N/A   Overcast
11:35 PM 68.0 °F 62.6 °F 83% 29.72 in 10.0 mi SSW 16.1 mph 24.2 mph N/A   Overcast
11:55 PM 68.0 °F 62.6 °F 83% 29.73 in 10.0 mi South 16.1 mph 23.0 mph N/A   Overcast